Retour au catalogue

YAOGAN-30 G

ActifMilitaireVLEO
NORAD 43081·PAYLOAD·🇨🇳 China

Lancé Dec 25, 2017 depuis Xichang Satellite Launch Center

Loading…

Prochains Passages (prochaines 24 heures)

TLE

FraisSource: Space-Track

Époque: Sep 14, 2026, 21:41 UTC

1 43081U 17085A   26257.90380280  .00002008  00000-0  14834-3 0  9992
2 43081  34.9968 323.1102 0004900 220.8108 139.2234 15.03008669476226

Suivez YAOGAN-30 G en temps réel avec AllMySat

Download on the App Store